DW8979 Weather Reports


Display with metric or nautical units.
time (UTC)temp
F
wind
direction
speed
MPH
gust
MPH
rain 1hr
in
rain 24hr
in
rain mn
in
humidity
%
barometer
mb
20180620040540 60 355 2.0 7.0 0.00 0.00 0.00 79 1017.0
20180620040056 60 0 2.0 7.0 0.00 0.00 0.00 78 1017.0
20180620035529 60 5 2.0 7.0 0.00 0.00 0.00 77 1017.1
20180620035027 61 0 1.0 7.0 0.00 0.00 0.00 77 1017.1
20180620034533 61 349 1.0 6.0 0.00 0.00 0.00 76 1017.2
20180620034058 62 0 3.0 11.0 0.00 0.00 0.00 76 1017.2
20180620034011 62 345 4.0 11.0 0.00 0.00 0.00 75 1017.2
20180620033518 62 345 4.0 11.0 0.00 0.00 0.00 75 1017.2
20180620032957 62 351 4.0 10.0 0.00 0.00 0.00 74 1017.2
20180620032507 63 330 5.0 10.0 0.00 0.00 0.00 74 1017.1
20180620031949 63 355 4.0 9.0 0.00 0.00 0.00 73 1017.2
20180620031442 64 355 3.0 8.0 0.00 0.00 0.00 71 1017.3
20180620031000 65 355 2.0 8.0 0.00 0.00 0.00 71 1017.3
20180620030447 65 5 3.0 13.0 0.00 0.00 0.00 70 1017.4
20180620030352 65 331 4.0 13.0 0.00 0.00 0.00 69 1017.6
20180620025901 65 331 4.0 13.0 0.00 0.00 0.00 69 1017.6
20180620025348 66 346 4.0 8.0 0.00 0.00 0.00 68 1017.6
20180620024846 67 355 3.0 7.0 0.00 0.00 0.00 67 1017.7
20180620024358 67 355 3.0 8.0 0.00 0.00 0.00 66 1017.8
20180620023857 68 351 3.0 8.0 0.00 0.00 0.00 65 1017.8
20180620023409 69 336 3.0 11.0 0.00 0.00 0.00 64 1017.8
20180620022847 69 344 3.0 11.0 0.00 0.00 0.00 64 1017.8
20180620022333 70 355 3.0 10.0 0.00 0.00 0.00 63 1017.9
20180620021851 70 350 4.0 8.0 0.00 0.00 0.00 62 1017.9
20180620021334 71 5 4.0 9.0 0.00 0.00 0.00 61 1018.0
20180620020822 72 345 3.0 9.0 0.00 0.00 0.00 60 1018.2
20180620020316 72 355 3.0 6.0 0.00 0.00 0.00 59 1018.1
20180620015820 73 355 3.0 7.0 0.00 0.00 0.00 58 1018.3
20180620015318 74 0 3.0 7.0 0.00 0.00 0.00 57 1018.3
20180620014759 74 0 2.0 8.0 0.00 0.00 0.00 56 1018.3
20180620014300 76 355 1.0 8.0 0.00 0.00 0.00 55 1018.4
20180620013754 76 346 1.0 8.0 0.00 0.00 0.00 54 1018.4
20180620013215 77 341 1.0 8.0 0.00 0.00 0.00 53 1018.5
20180620012734 78 351 1.0 6.0 0.00 0.00 0.00 53 1018.5
20180620012221 78 350 1.0 4.0 0.00 0.00 0.00 52 1018.5
20180620011634 78 350 1.0 7.0 0.00 0.00 0.00 53 1018.6
20180620011117 78 350 1.0 7.0 0.00 0.00 0.00 52 1018.5
20180620010648 79 0 1.0 5.0 0.00 0.00 0.00 52 1018.7
20180620010109 78 0 1.0 5.0 0.00 0.00 0.00 51 1018.7
20180620010046 78 0 0.0 4.0 0.00 0.00 0.00 52 1018.7
20180620005556 78 0 0.0 6.0 0.00 0.00 0.00 53 1018.8
20180620005051 78 0 0.0 6.0 0.00 0.00 0.00 53 1018.8
20180620004558 78 0 1.0 6.0 0.00 0.00 0.00 52 1018.8
20180620004117 78 9 1.0 6.0 0.00 0.00 0.00 51 1018.8
20180620003526 79 0 1.0 6.0 0.00 0.00 0.00 51 1018.8
20180620003010 79 355 1.0 6.0 0.00 0.00 0.00 51 1018.8
20180620002528 80 355 1.0 7.0 0.00 0.00 0.00 49 1019.0
20180620002508 79 336 1.0 6.0 0.00 0.00 0.00 50 1019.0
20180620002028 80 355 1.0 7.0 0.00 0.00 0.00 49 1019.0
20180620001522 80 0 1.0 7.0 0.00 0.00 0.00 49 1019.0
20180620000952 81 323 0.0 4.0 0.00 0.00 0.00 48 1019.2
20180620000446 81 321 1.0 5.0 0.00 0.00 0.00 48 1019.2
20180620000004 82 281 1.0 6.0 0.00 0.00 0.00 47 1019.2
20180619235918 82 233 1.0 5.0 0.00 0.00 0.00 47 1019.2
20180619235525 82 281 1.0 6.0 0.00 0.00 0.00 47 1019.2
20180619234933 82 317 1.0 6.0 0.00 0.00 0.00 47 1019.2
20180619234408 83 225 1.0 5.0 0.00 0.00 0.00 44 1019.3
20180619233955 83 225 2.0 6.0 0.00 0.00 0.00 47 1019.3
20180619233919 84 225 1.0 6.0 0.00 0.00 0.00 44 1019.5
20180619233454 83 225 2.0 6.0 0.00 0.00 0.00 47 1019.3
20180619233350 82 225 2.0 7.0 0.00 0.00 0.00 48 1019.3
20180619232408 82 224 3.0 7.0 0.00 0.00 0.00 48 1019.3
20180619231850 82 225 3.0 8.0 0.00 0.00 0.00 48 1019.3
20180619231350 82 236 4.0 11.0 0.00 0.00 0.00 47 1019.3
20180619231346 82 225 3.0 8.0 0.00 0.00 0.00 49 1019.2
20180619230850 82 236 4.0 11.0 0.00 0.00 0.00 47 1019.3
20180619230838 81 226 4.0 11.0 0.00 0.00 0.00 48 1019.2
20180619230400 82 236 4.0 11.0 0.00 0.00 0.00 47 1019.3
20180619225904 83 227 2.0 7.0 0.00 0.00 0.00 45 1019.5
20180619225344 84 240 1.0 4.0 0.00 0.00 0.00 47 1019.5
20180619225338 85 236 1.0 6.0 0.00 0.00 0.00 46 1019.7
20180619224335 83 240 1.0 6.0 0.00 0.00 0.00 48 1019.8
20180619223831 83 298 1.0 4.0 0.00 0.00 0.00 49 1019.9
20180619223826 83 240 1.0 6.0 0.00 0.00 0.00 47 1019.8
20180619223357 83 298 1.0 4.0 0.00 0.00 0.00 49 1019.9
20180619222816 82 302 1.0 3.0 0.00 0.00 0.00 48 1019.8
20180619222325 82 302 1.0 4.0 0.00 0.00 0.00 48 1019.8
20180619221735 82 305 0.0 4.0 0.00 0.00 0.00 49 1019.9
20180619221223 81 325 0.0 2.0 0.00 0.00 0.00 49 1019.8
20180619220713 80 325 1.0 5.0 0.00 0.00 0.00 50 1019.5
20180619220208 81 339 1.0 5.0 0.00 0.00 0.00 50 1019.8
20180619215701 81 338 1.0 6.0 0.00 0.00 0.00 49 1019.8
20180619215237 81 338 1.0 6.0 0.00 0.00 0.00 49 1019.8
20180619214651 81 246 1.0 6.0 0.00 0.00 0.00 49 1019.8
20180619214159 81 231 0.0 3.0 0.00 0.00 0.00 49 1019.9
20180619214150 81 231 1.0 6.0 0.00 0.00 0.00 49 1019.9
20180619213709 81 227 1.0 6.0 0.00 0.00 0.00 50 1019.9
20180619213202 81 227 1.0 6.0 0.00 0.00 0.00 50 1019.9
20180619212629 82 226 1.0 4.0 0.00 0.00 0.00 50 1020.0
20180619212127 82 226 1.0 5.0 0.00 0.00 0.00 49 1019.9
20180619211617 83 226 1.0 5.0 0.00 0.00 0.00 50 1020.0
20180619211150 82 226 1.0 5.0 0.00 0.00 0.00 49 1020.0
20180619210624 82 227 3.0 6.0 0.00 0.00 0.00 52 1020.0
20180619210116 81 227 2.0 6.0 0.00 0.00 0.00 51 1019.9
20180619210112 81 227 2.0 6.0 0.00 0.00 0.00 53 1019.9
20180619205127 80 227 3.0 6.0 0.00 0.00 0.00 53 1019.8
20180619204559 80 227 2.0 6.0 0.00 0.00 0.00 52 1019.9
20180619204123 80 237 1.0 5.0 0.00 0.00 0.00 52 1019.9
20180619203537 80 238 1.0 5.0 0.00 0.00 0.00 53 1019.8
20180619203030 79 238 2.0 5.0 0.00 0.00 0.00 54 1019.8
20180619202518 79 238 2.0 5.0 0.00 0.00 0.00 54 1019.9
20180619202014 79 238 2.0 5.0 0.00 0.00 0.00 54 1020.0
20180619201512 78 238 1.0 5.0 0.00 0.00 0.00 55 1019.8
20180619201104 78 238 2.0 6.0 0.00 0.00 0.00 55 1019.9
20180619200455 77 238 3.0 7.0 0.00 0.00 0.00 57 1019.8
20180619195956 76 238 2.0 7.0 0.00 0.00 0.00 58 1019.8
20180619195444 76 241 2.0 5.0 0.00 0.00 0.00 58 1019.8
20180619194937 76 241 2.0 6.0 0.00 0.00 0.00 57 1019.8
20180619194434 76 241 2.0 6.0 0.00 0.00 0.00 57 1019.9
20180619194429 76 242 1.0 5.0 0.00 0.00 0.00 57 1019.9
20180619193444 76 242 1.0 4.0 0.00 0.00 0.00 58 1019.8
20180619192924 77 242 1.0 5.0 0.00 0.00 0.00 56 1019.9
20180619192413 77 242 1.0 3.0 0.00 0.00 0.00 56 1019.9
20180619192408 77 242 1.0 5.0 0.00 0.00 0.00 57 1019.9
20180619191911 77 242 1.0 3.0 0.00 0.00 0.00 56 1019.9
20180619191401 77 242 0.0 3.0 0.00 0.00 0.00 57 1019.9
20180619190903 77 242 1.0 4.0 0.00 0.00 0.00 56 1020.0
20180619190323 77 242 1.0 4.0 0.00 0.00 0.00 55 1020.1
20180619185824 78 242 0.0 4.0 0.00 0.00 0.00 54 1020.1
20180619185313 78 242 1.0 6.0 0.00 0.00 0.00 54 1020.1
20180619184800 78 242 1.0 6.0 0.00 0.00 0.00 54 1020.2
20180619184256 77 270 0.0 4.0 0.00 0.00 0.00 49 1020.1
20180619183756 76 245 0.0 4.0 0.00 0.00 0.00 57 1020.0
20180619183246 75 245 1.0 4.0 0.00 0.00 0.00 56 1019.9
20180619182748 74 245 1.0 4.0 0.00 0.00 0.00 60 1019.8
20180619182245 73 245 1.0 5.0 0.00 0.00 0.00 63 1019.8
20180619181743 72 245 1.0 5.0 0.00 0.00 0.00 63 1019.5
20180619181230 72 245 1.0 5.0 0.00 0.00 0.00 63 1019.5
20180619180748 71 245 1.0 4.0 0.00 0.00 0.00 65 1019.5
20180619180729 72 245 1.0 3.0 0.00 0.00 0.00 63 1019.5
20180619175716 71 245 1.0 4.0 0.00 0.00 0.00 66 1019.5
20180619175212 70 245 1.0 4.0 0.00 0.00 0.00 67 1019.4
20180619174730 69 245 2.0 6.0 0.00 0.00 0.00 67 1019.3
20180619174239 69 245 2.0 6.0 0.00 0.00 0.00 66 1019.4
20180619173637 69 259 1.0 5.0 0.00 0.00 0.00 68 1019.4
20180619173127 68 259 1.0 4.0 0.00 0.00 0.00 67 1019.3
20180619172637 68 259 2.0 5.0 0.00 0.00 0.00 68 1019.3
20180619172125 67 259 2.0 5.0 0.00 0.00 0.00 69 1019.2
20180619171624 67 350 1.0 5.0 0.00 0.00 0.00 69 1019.1
20180619171123 67 350 1.0 5.0 0.00 0.00 0.00 68 1019.2
20180619170617 67 351 0.0 3.0 0.00 0.00 0.00 70 1019.3
20180619170110 66 351 0.0 2.0 0.00 0.00 0.00 70 1019.2
20180619165647 66 351 0.0 0.0 0.00 0.00 0.00 69 1019.1
20180619165109 65 351 0.0 0.0 0.00 0.00 0.00 70 1019.1
20180619164520 65 351 0.0 1.0 0.00 0.00 0.00 72 1019.1
20180619164035 64 351 0.0 1.0 0.00 0.00 0.00 72 1019.0
20180619163501 64 351 0.0 1.0 0.00 0.00 0.00 73 1018.9
20180619163000 63 351 0.0 4.0 0.00 0.00 0.00 74 1018.9
20180619162450 62 351 0.0 4.0 0.00 0.00 0.00 74 1018.8
20180619161929 62 351 0.0 0.0 0.00 0.00 0.00 75 1018.8
20180619161925 62 351 0.0 2.0 0.00 0.00 0.00 74 1018.8
20180619160917 61 351 0.0 0.0 0.00 0.00 0.00 76 1018.8
20180619160413 60 351 0.0 0.0 0.00 0.00 0.00 78 1018.8
20180619155854 60 351 0.0 1.0 0.00 0.00 0.00 80 1018.6
20180619155345 59 351 0.0 3.0 0.00 0.00 0.00 81 1018.5
20180619154829 58 351 0.0 3.0 0.00 0.00 0.00 82 1018.4
20180619154324 58 351 1.0 4.0 0.00 0.00 0.00 83 1018.4
20180619153824 57 351 1.0 4.0 0.00 0.00 0.00 84 1018.4
20180619153328 56 355 2.0 4.0 0.00 0.00 0.00 86 1018.2
20180619152818 56 355 1.0 4.0 0.00 0.00 0.00 88 1018.1
20180619152405 54 355 0.0 0.0 0.00 0.00 0.00 90 1017.9
20180619152400 55 355 0.0 0.0 0.00 0.00 0.00 90 1017.9
20180619151314 54 355 1.0 2.0 0.00 0.00 0.00 90 1017.7
20180619150806 53 355 2.0 4.0 0.00 0.00 0.00 90 1017.6
20180619150237 52 355 2.0 4.0 0.00 0.00 0.00 90 1017.3
20180619145722 51 355 2.0 5.0 0.00 0.00 0.00 90 1017.3
20180619145227 51 355 3.0 6.0 0.00 0.00 0.00 90 1017.1
20180619144642 51 355 4.0 6.0 0.00 0.00 0.00 90 1017.1
20180619144145 51 355 4.0 8.0 0.00 0.00 0.00 90 1017.1
20180619143649 50 351 4.0 8.0 0.00 0.00 0.00 90 1017.0
20180619143134 50 355 5.0 9.0 0.00 0.00 0.00 90 1016.9
20180619142630 50 355 6.0 9.0 0.00 0.00 0.00 90 1016.9
20180619142123 50 355 5.0 9.0 0.00 0.00 0.00 90 1016.9
20180619141621 50 355 5.0 9.0 0.00 0.00 0.00 90 1016.8
20180619141119 50 355 4.0 8.0 0.00 0.00 0.00 89 1016.8
20180619140606 50 355 4.0 8.0 0.00 0.00 0.00 89 1016.8
20180619140120 50 0 4.0 7.0 0.00 0.00 0.00 89 1016.8
20180619135604 50 0 4.0 7.0 0.00 0.00 0.00 89 1016.8
20180619135105 49 0 4.0 7.0 0.00 0.00 0.00 89 1016.7
20180619134609 50 0 4.0 7.0 0.00 0.00 0.00 88 1016.7
20180619134058 50 0 4.0 6.0 0.00 0.00 0.00 88 1016.7
20180619133549 50 0 3.0 6.0 0.00 0.00 0.00 87 1016.6
20180619133043 51 0 3.0 6.0 0.00 0.00 0.00 87 1016.6
20180619132539 51 0 3.0 5.0 0.00 0.00 0.00 86 1016.7
20180619132037 52 0 2.0 4.0 0.00 0.00 0.00 86 1016.9
20180619131549 52 0 2.0 4.0 0.00 0.00 0.00 85 1016.8
20180619131050 53 0 1.0 3.0 0.00 0.00 0.00 84 1016.8
20180619130518 53 0 0.0 3.0 0.00 0.00 0.00 83 1016.8
20180619130032 53 0 0.0 3.0 0.00 0.00 0.00 82 1016.8
20180619125534 54 0 0.0 1.0 0.00 0.00 0.00 81 1016.9
20180619125004 54 0 0.0 0.0 0.00 0.00 0.00 81 1016.8
20180619124504 54 0 0.0 0.0 0.00 0.00 0.00 80 1016.8
20180619123954 55 0 0.0 3.0 0.00 0.00 0.00 79 1016.9
20180619123504 55 0 1.0 4.0 0.00 0.00 0.00 78 1016.8
20180619123006 55 0 1.0 4.0 0.00 0.00 0.00 78 1016.8
20180619122459 56 0 0.0 0.0 0.00 0.00 0.00 76 1016.8
20180619122446 56 0 1.0 4.0 0.00 0.00 0.00 77 1016.8
20180619122001 56 0 0.0 0.0 0.00 0.00 0.00 76 1016.8
20180619121440 57 0 0.0 0.0 0.00 0.00 0.00 75 1016.8
20180619120939 57 0 0.0 0.0 0.00 0.00 0.00 74 1016.8
20180619120406 57 0 0.0 0.0 0.00 0.00 0.00 74 1016.9
20180619115858 57 0 0.0 0.0 0.00 0.00 0.00 73 1016.9
20180619115401 57 0 0.0 0.0 0.00 0.00 0.00 74 1016.8
20180619115333 57 0 0.0 0.0 0.00 0.00 0.00 75 1016.8
20180619114328 56 0 0.0 0.0 0.00 0.00 0.00 76 1016.7
20180619113816 56 0 0.0 0.0 0.00 0.00 0.00 77 1016.7
20180619113315 56 0 0.0 0.0 0.00 0.00 0.00 77 1016.8
20180619112811 56 0 0.0 0.0 0.00 0.00 0.00 77 1016.8
20180619112328 55 0 0.0 0.0 0.00 0.00 0.00 78 1016.7
20180619111810 55 0 0.0 0.0 0.00 0.00 0.00 80 1016.7
20180619111246 54 0 0.0 0.0 0.00 0.00 0.00 82 1016.5
20180619110805 53 0 0.0 0.0 0.00 0.00 0.00 84 1016.5
20180619110235 53 0 0.0 0.0 0.00 0.00 0.00 86 1016.6
20180619105741 52 0 0.0 0.0 0.00 0.00 0.00 87 1016.4
20180619105216 52 0 0.0 0.0 0.00 0.00 0.00 88 1016.5
20180619104712 52 0 0.0 0.0 0.00 0.00 0.00 88 1016.5
20180619104210 52 0 0.0 0.0 0.00 0.00 0.00 88 1016.5
20180619103658 52 0 0.0 0.0 0.00 0.00 0.00 88 1016.6
20180619103157 52 0 0.0 0.0 0.00 0.00 0.00 88 1016.5
20180619102623 52 0 0.0 0.0 0.00 0.00 0.00 88 1016.6
20180619102112 53 0 0.0 0.0 0.00 0.00 0.00 88 1016.6
20180619101615 53 0 0.0 0.0 0.00 0.00 0.00 88 1016.7
20180619101133 53 0 0.0 2.0 0.00 0.00 0.00 87 1016.8
20180619100548 53 0 0.0 2.0 0.00 0.00 0.00 87 1016.9
20180619100041 53 0 0.0 2.0 0.00 0.00 0.00 87 1016.8
20180619095542 54 0 0.0 2.0 0.00 0.00 0.00 86 1016.9
20180619095029 54 0 0.0 0.0 0.00 0.00 0.00 85 1016.9
20180619094540 54 0 0.0 0.0 0.00 0.00 0.00 83 1017.0
20180619094023 55 0 0.0 0.0 0.00 0.00 0.00 83 1017.1
20180619093519 55 0 0.0 4.0 0.00 0.00 0.00 82 1016.9
20180619093004 55 0 1.0 4.0 0.00 0.00 0.00 81 1017.0
20180619092447 56 0 1.0 6.0 0.00 0.00 0.00 80 1017.0
20180619091455 56 0 1.0 4.0 0.00 0.00 0.00 78 1017.0
20180619091451 56 0 0.0 4.0 0.00 0.00 0.00 78 1017.0
20180619090944 56 0 0.0 4.0 0.00 0.00 0.00 78 1017.0
20180619090456 56 0 0.0 4.0 0.00 0.00 0.00 78 1017.0
20180619085931 56 0 0.0 4.0 0.00 0.00 0.00 79 1017.1
20180619085418 56 0 0.0 4.0 0.00 0.00 0.00 80 1017.1
20180619085412 55 0 0.0 3.0 0.00 0.00 0.00 81 1017.0
20180619084358 55 0 0.0 0.0 0.00 0.00 0.00 82 1017.0
20180619083900 55 0 0.0 0.0 0.00 0.00 0.00 83 1017.1
20180619083342 55 0 0.0 0.0 0.00 0.00 0.00 83 1017.1
20180619082843 55 0 0.0 0.0 0.00 0.00 0.00 83 1017.1
20180619082325 55 0 0.0 0.0 0.00 0.00 0.00 84 1017.3
20180619081824 55 0 0.0 0.0 0.00 0.00 0.00 84 1017.4
20180619081323 55 0 0.0 1.0 0.00 0.00 0.00 84 1017.4
20180619080800 55 0 0.0 1.0 0.00 0.00 0.00 84 1017.4
20180619080242 55 0 0.0 0.0 0.00 0.00 0.00 85 1017.6
20180619075742 55 0 0.0 0.0 0.00 0.00 0.00 85 1017.6
20180619075714 55 0 0.0 0.0 0.00 0.00 0.00 85 1017.4
20180619075220 55 0 0.0 0.0 0.00 0.00 0.00 85 1017.4
20180619074715 55 0 0.0 2.0 0.00 0.00 0.00 86 1017.6
20180619074207 55 0 0.0 2.0 0.00 0.00 0.00 86 1017.6
20180619073650 55 0 0.0 1.0 0.00 0.00 0.00 87 1017.7
20180619073142 55 0 0.0 1.0 0.00 0.00 0.00 87 1017.8
20180619072646 55 0 0.0 2.0 0.00 0.00 0.00 87 1017.8
20180619072641 55 0 0.0 3.0 0.00 0.00 0.00 87 1017.7
20180619071624 55 0 0.0 3.0 0.00 0.00 0.00 88 1017.7
20180619071122 54 0 0.0 0.0 0.00 0.00 0.00 88 1017.7
20180619070608 54 0 0.0 0.0 0.00 0.00 0.00 88 1017.8
20180619070106 54 0 0.0 0.0 0.00 0.00 0.00 89 1017.8
20180619065552 54 0 0.0 0.0 0.00 0.00 0.00 89 1017.8
20180619065548 54 0 0.0 0.0 0.00 0.00 0.00 89 1017.7
20180619065045 54 0 0.0 2.0 0.00 0.00 0.00 89 1017.8
20180619064556 54 0 0.0 2.0 0.00 0.00 0.00 89 1017.8
20180619064012 54 0 0.0 4.0 0.00 0.00 0.00 89 1017.8
20180619063508 54 0 1.0 4.0 0.00 0.00 0.00 88 1017.8
20180619063025 54 0 1.0 4.0 0.00 0.00 0.00 88 1017.7
20180619062524 54 0 0.0 3.0 0.00 0.00 0.00 88 1017.8
20180619062447 54 0 0.0 0.0 0.00 0.00 0.00 88 1017.8
20180619061505 54 0 1.0 6.0 0.00 0.00 0.00 88 1017.8
20180619060930 54 0 2.0 6.0 0.00 0.00 0.00 88 1017.8
20180619060403 54 0 2.0 5.0 0.00 0.00 0.00 88 1017.8
20180619055900 55 0 2.0 5.0 0.00 0.00 0.00 88 1017.7
20180619055401 55 355 2.0 6.0 0.00 0.00 0.00 87 1017.8
20180619054859 55 355 3.0 6.0 0.00 0.00 0.00 87 1017.8
20180619054403 55 355 3.0 7.0 0.00 0.00 0.00 87 1017.8
20180619053903 55 355 2.0 7.0 0.00 0.00 0.00 87 1017.8
20180619053854 56 355 2.0 8.0 0.00 0.00 0.00 86 1017.9
20180619052858 56 355 3.0 8.0 0.00 0.00 0.00 86 1017.9
20180619052351 56 350 2.0 6.0 0.00 0.00 0.00 86 1018.0
20180619051858 56 350 2.0 5.0 0.00 0.00 0.00 86 1018.0
20180619051356 56 348 3.0 7.0 0.00 0.00 0.00 85 1017.9
20180619051352 56 350 3.0 7.0 0.00 0.00 0.00 85 1017.9
20180619050339 57 342 3.0 7.0 0.00 0.00 0.00 84 1018.1
20180619045837 57 317 3.0 6.0 0.00 0.00 0.00 84 1018.0
20180619045347 57 312 2.0 6.0 0.00 0.00 0.00 83 1018.1
20180619044855 58 311 2.0 5.0 0.00 0.00 0.00 83 1018.1
20180619044335 58 311 2.0 5.0 0.00 0.00 0.00 83 1018.0
20180619043833 58 309 2.0 5.0 0.00 0.00 0.00 83 1017.9
20180619043350 58 309 2.0 5.0 0.00 0.00 0.00 83 1017.9
20180619042829 58 309 2.0 5.0 0.00 0.00 0.00 83 1018.0
20180619042324 58 306 2.0 5.0 0.00 0.00 0.00 82 1018.0
20180619041856 58 306 1.0 5.0 0.00 0.00 0.00 82 1018.0
20180619041325 59 224 0.0 0.0 0.00 0.00 0.00 82 1018.0
20180619041320 59 224 0.0 2.0 0.00 0.00 0.00 82 1018.0